TimePST,TemperatureF,Dew PointF,Humidity,Sea Level PressureIn,VisibilityMPH,Wind Direction,Wind SpeedMPH,Gust SpeedMPH,PrecipitationIn,Events,Conditions,WindDirDegrees,DateUTC
12:06 AM,50.0,50.0,100,30.00,4.0,SE,9.2,-,0.01,Rain,Light Rain,130,2012-12-17 08:06:00
12:53 AM,52.0,51.1,97,29.99,3.0,South,15.0,20.7,0.03,Rain,Light Rain,180,2012-12-17 08:53:00
1:00 AM,51.8,51.8,100,29.99,3.0,South,10.4,20.7,0.01,Rain,Light Rain,180,2012-12-17 09:00:00
1:10 AM,51.8,51.8,100,29.99,4.0,South,11.5,-,0.02,Rain,Light Rain,180,2012-12-17 09:10:00
1:53 AM,52.0,51.1,97,29.99,4.0,South,12.7,19.6,0.05,Rain,Light Rain,190,2012-12-17 09:53:00
2:27 AM,51.8,51.8,100,29.99,5.0,South,11.5,-,0.03,Rain,Light Rain,170,2012-12-17 10:27:00
2:37 AM,51.8,51.8,100,29.98,5.0,South,9.2,16.1,0.03,Rain,Light Rain,170,2012-12-17 10:37:00
2:53 AM,53.1,52.0,96,29.98,5.0,South,6.9,-,0.03,Rain,Light Rain,190,2012-12-17 10:53:00
2:58 AM,53.6,51.8,94,29.98,5.0,South,11.5,18.4,0.01,Rain,Light Rain,190,2012-12-17 10:58:00
4:21 AM,51.8,51.8,100,29.97,5.0,South,3.5,-,0.02,Rain,Light Rain,170,2012-12-17 12:21:00
4:37 AM,51.8,51.8,100,29.97,3.0,SE,8.1,-,0.03,Rain,Light Rain,140,2012-12-17 12:37:00
4:53 AM,52.0,52.0,100,29.97,7.0,SSE,5.8,-,0.03,,Overcast,160,2012-12-17 12:53:00
5:41 AM,53.6,53.6,100,29.96,5.0,South,10.4,21.9,0.01,,Overcast,180,2012-12-17 13:41:00
5:53 AM,54.0,53.1,97,29.96,4.0,South,9.2,17.3,0.02,Rain,Light Rain,180,2012-12-17 13:53:00
6:17 AM,53.6,51.8,94,29.97,2.5,South,9.2,-,0.04,Rain,Rain,170,2012-12-17 14:17:00
6:32 AM,53.6,51.8,94,29.99,5.0,South,4.6,-,0.05,Rain,Light Rain,170,2012-12-17 14:32:00
6:53 AM,53.1,52.0,96,29.99,10.0,SE,9.2,-,0.05,,Overcast,130,2012-12-17 14:53:00
7:05 AM,51.8,51.8,100,30.00,10.0,SE,9.2,-,N/A,,Overcast,130,2012-12-17 15:05:00
7:53 AM,53.1,52.0,96,30.00,10.0,SSE,8.1,-,N/A,,Overcast,160,2012-12-17 15:53:00
8:53 AM,54.0,52.0,93,30.03,10.0,Calm,Calm,-,N/A,,Overcast,0,2012-12-17 16:53:00
9:11 AM,53.6,51.8,94,30.02,10.0,SE,5.8,-,N/A,,Overcast,140,2012-12-17 17:11:00
9:53 AM,55.9,48.9,77,30.03,10.0,SSW,6.9,-,N/A,,Overcast,200,2012-12-17 17:53:00
10:53 AM,57.9,48.9,72,30.04,10.0,WSW,6.9,-,N/A,,Clear,250,2012-12-17 18:53:00
11:53 AM,57.9,48.0,70,30.02,10.0,SW,10.4,-,N/A,,Clear,230,2012-12-17 19:53:00
12:53 PM,59.0,46.9,64,30.01,10.0,WSW,9.2,-,N/A,,Scattered Clouds,240,2012-12-17 20:53:00
1:53 PM,60.1,46.9,62,29.99,10.0,SW,8.1,-,N/A,,Clear,230,2012-12-17 21:53:00
4:53 PM,54.0,48.0,80,29.96,10.0,SSW,9.2,-,N/A,,Clear,210,2012-12-18 00:53:00
5:53 PM,52.0,46.9,83,29.97,10.0,Variable,3.5,-,N/A,,Clear,0,2012-12-18 01:53:00
6:53 PM,51.1,46.0,83,29.97,10.0,SSW,6.9,-,N/A,,Clear,210,2012-12-18 02:53:00
7:53 PM,46.9,45.0,93,29.97,10.0,SW,5.8,-,N/A,,Clear,230,2012-12-18 03:53:00
8:53 PM,44.1,41.0,89,29.97,10.0,WSW,4.6,-,N/A,,Clear,240,2012-12-18 04:53:00
9:53 PM,46.0,39.0,76,29.97,10.0,Calm,Calm,-,N/A,,Clear,0,2012-12-18 05:53:00
10:53 PM,42.1,37.9,85,29.98,10.0,NNW,4.6,-,N/A,,Clear,330,2012-12-18 06:53:00
11:53 PM,46.9,37.0,68,29.99,10.0,NNW,8.1,-,N/A,,Mostly Cloudy,330,2012-12-18 07:53:00